Weather History for Cincinnati, OH

Change the Weather History Date:

Sunday, December 15, 2013

  Actual Average Record
Temperature  
Mean Temperature 30 °F -  
Max Temperature 33 °F 44 °F 67 °F (1971)
Min Temperature 28 °F 28 °F 1 °F (1989)
Degree Days  
Heating Degree Days 34    
Moisture  
Dew Point 23 °F    
Average Humidity 76    
Maximum Humidity 87    
Minimum Humidity 64    
Precipitation  
Precipitation 0.00 in - - ()
Sea Level Pressure  
Sea Level Pressure 30.07 in    
Wind  
Wind Speed 12 mph (West)    
Max Wind Speed 17 mph    
Max Gust Speed 25 mph    
Visibility 10 miles    
Events      
Averages and records for this station are not official NWS values.
T = Trace of Precipitation, MM = Missing Value Source: NWS Daily Summary

Daily Weather History Graph

Daily Weather History Graph

Search for Another Location

Airport:

Trip Planner

Search our weather history database for the weather conditions in past years. The results will help you decide how hot, cold, wet, or windy it might be!

Date:

Astronomy

Dec. 15, 2013 Rise Set
Actual Time 7:49 AM EST 5:16 PM EST
Civil Twilight 7:19 AM EST 5:46 PM EST
Nautical Twilight 6:46 AM EST 6:19 PM EST
Astronomical Twilight 6:13 AM EST 6:52 PM EST
Moon 4:19 PM EST (12/15) 6:05 AM EST (12/15)
Length of Visible Light 10h 26m
Length of Day
9h 26m
Waxing Gibbous, 97% of the Moon is Illuminated
Dec 15
Waxing Gibbous
Dec 17
Full
Dec 25
Last Quarter
Jan 1
New
Jan 7
First Quarter

Hourly Weather History & Observations

Time (EST) Temp. Windchill Dew Point Humidity Pressure Visibility Wind Dir Wind Speed Gust Speed Precip Events Conditions
12:53 AM 33.1 °F 23.0 °F 28.9 °F 85% 29.93 in 8.0 mi West 15.0 mph 20.7 mph N/A   Overcast
1:32 AM 32.0 °F 22.5 °F 28.4 °F 87% 29.92 in 10.0 mi WNW 12.7 mph 19.6 mph N/A   Overcast
1:53 AM 32.0 °F 23.6 °F 28.0 °F 85% 29.94 in 10.0 mi West 10.4 mph 23.0 mph N/A   Overcast
2:10 AM 32.0 °F 24.2 °F 26.6 °F 80% 29.94 in 10.0 mi WNW 9.2 mph - N/A   Overcast
2:53 AM 30.9 °F 22.2 °F 26.1 °F 82% 29.97 in 10.0 mi WNW 10.4 mph 21.9 mph N/A   Overcast
3:44 AM 30.2 °F 20.8 °F 24.8 °F 80% 29.98 in 10.0 mi NW 11.5 mph 18.4 mph N/A   Overcast
3:53 AM 30.0 °F 23.2 °F 25.0 °F 82% 30.00 in 10.0 mi Variable 6.9 mph 18.4 mph N/A   Overcast
4:33 AM 28.4 °F 19.7 °F 24.8 °F 86% 30.00 in 10.0 mi NW 9.2 mph 18.4 mph N/A   Overcast
4:53 AM 28.9 °F 19.2 °F 24.1 °F 82% 30.01 in 10.0 mi NW 11.5 mph - N/A   Overcast
5:09 AM 28.4 °F 19.7 °F 24.8 °F 86% 30.00 in 10.0 mi NW 9.2 mph - N/A   Overcast
5:53 AM 28.9 °F - 25.0 °F 85% 30.02 in 10.0 mi Calm Calm - N/A   Overcast
6:43 AM 30.2 °F 26.7 °F 26.6 °F 86% 30.01 in 10.0 mi Variable 3.5 mph - N/A   Overcast
6:53 AM 30.0 °F 20.0 °F 25.0 °F 82% 30.03 in 10.0 mi West 12.7 mph 19.6 mph N/A   Overcast
7:53 AM 30.0 °F 21.1 °F 23.0 °F 75% 30.05 in 10.0 mi West 10.4 mph 21.9 mph N/A   Overcast
8:53 AM 28.9 °F 20.4 °F 21.9 °F 75% 30.08 in 10.0 mi West 9.2 mph - N/A   Overcast
9:53 AM 28.9 °F 19.2 °F 23.0 °F 78% 30.09 in 10.0 mi West 11.5 mph - N/A   Overcast
10:53 AM 28.9 °F 16.9 °F 23.0 °F 78% 30.09 in 7.0 mi WSW 17.3 mph 21.9 mph N/A   Overcast
11:53 AM 28.9 °F 18.2 °F 21.9 °F 75% 30.08 in 10.0 mi WSW 13.8 mph 21.9 mph N/A   Overcast
12:53 PM 30.0 °F 19.1 °F 21.0 °F 69% 30.07 in 10.0 mi WSW 15.0 mph - N/A   Overcast
1:53 PM 30.0 °F 18.3 °F 21.9 °F 72% 30.06 in 10.0 mi WSW 17.3 mph 25.3 mph N/A   Overcast
2:53 PM 32.0 °F 21.2 °F 21.9 °F 66% 30.06 in 10.0 mi WSW 16.1 mph 19.6 mph N/A   Mostly Cloudy
3:32 PM 30.2 °F 19.3 °F 19.4 °F 64% 30.07 in 10.0 mi WSW 15.0 mph 23.0 mph N/A   Mostly Cloudy
3:53 PM 30.9 °F 21.2 °F 19.9 °F 64% 30.09 in 10.0 mi West 12.7 mph 19.6 mph N/A   Overcast
4:53 PM 30.0 °F 19.5 °F 19.9 °F 66% 30.11 in 10.0 mi WSW 13.8 mph 20.7 mph N/A   Overcast
5:53 PM 30.0 °F 21.7 °F 21.0 °F 69% 30.11 in 10.0 mi SW 9.2 mph - N/A   Overcast
6:48 PM 30.2 °F 19.8 °F 21.2 °F 69% 30.11 in 10.0 mi West 13.8 mph - N/A   Overcast
6:53 PM 30.0 °F 20.5 °F 21.9 °F 72% 30.13 in 10.0 mi WSW 11.5 mph - N/A   Overcast
7:53 PM 30.0 °F 19.5 °F 21.9 °F 72% 30.14 in 10.0 mi WSW 13.8 mph - N/A   Overcast
8:00 PM 30.2 °F 19.8 °F 21.2 °F 69% 30.13 in 10.0 mi WSW 13.8 mph 20.7 mph N/A   Overcast
8:37 PM 30.2 °F 19.8 °F 21.2 °F 69% 30.14 in 10.0 mi WSW 13.8 mph - N/A   Overcast
8:53 PM 28.9 °F 19.8 °F 21.9 °F 75% 30.15 in 10.0 mi WSW 10.4 mph - N/A   Overcast
9:37 PM 28.4 °F 18.5 °F 21.2 °F 74% 30.13 in 10.0 mi WSW 11.5 mph - N/A   Overcast
9:53 PM 28.9 °F 19.8 °F 21.9 °F 75% 30.16 in 10.0 mi SW 10.4 mph - N/A   Overcast
10:10 PM 28.4 °F 19.1 °F 21.2 °F 74% 30.14 in 10.0 mi WSW 10.4 mph - N/A   Overcast
10:30 PM 28.4 °F 17.0 °F 21.2 °F 74% 30.15 in 10.0 mi WSW 15.0 mph 21.9 mph N/A   Overcast
10:53 PM 28.9 °F 20.4 °F 21.0 °F 72% 30.16 in 10.0 mi WSW 9.2 mph - N/A   Overcast
11:07 PM 28.4 °F 19.1 °F 21.2 °F 74% 30.15 in 10.0 mi WSW 10.4 mph - N/A   Overcast
11:53 PM 28.9 °F 20.4 °F 21.9 °F 75% 30.17 in 10.0 mi WSW 9.2 mph - N/A   Overcast